Regional Weather Roundup
Issued by NWS

Home | Current Version | Previous Version | Text Only | Print | Product List | Glossary Off
Versions: 1 2 3 4 5 6 7 8 9 10 11 12 13 14 15 16 17 18 19 20 21 22 23 24 25 26 27 28 29 30 31 32 33 34 35 36 37 38 39 40 41 42 43 44 45 46 47 48 49 50

000
ASUS43 KIND 160059
RWRIN

WEATHER ROUNDUP FOR INDIANA
NATIONAL WEATHER SERVICE INDIANAPOLIS IN
800 PM EST SUN JAN 15 2017

NOTE: "FAIR" INDICATES FEW OR NO CLOUDS BELOW 12,000 FEET WITH NO
SIGNIFICANT WEATHER AND/OR OBSTRUCTIONS TO VISIBILITY.

* - STATION DOES NOT REPORT WEATHER SUCH AS PRECIPITATION OR FOG.

+ - STATION NOT QUALITY CONTROLLED BY THE NATIONAL WEATHER SERVICE.
    USE DATA WITH CAUTION...ESPECIALLY DEWPOINT AND RELATIVE
    HUMIDITY OBSERVATIONS.

INZ001>003-010>013-019-020-160200-
NORTHWEST INDIANA

CITY           SKY/WX    TMP DP  RH WIND       PRES   REMARKS
MONTICELLO +   CLOUDY    32  26  78 CALM      30.33S

$$

LMZ046-743>745-160200-
SOUTHERN LAKE MICHIGAN

STATION/POSITION TIME  TEMP    WIND        PRES    WAVE
                       AIR SEA DIR/SP/G            HT
                 (UTC) (F)     (DEG/KT/KT) (MB)    (FT)
BURNS HARBOR     0040   33     150/  3/  5 1027.4F
MICHIGAN CITY    0030   32     130/  3/  4   N/A

$$

INZ004-005-014>016-021>024-160200-
NORTH CENTRAL INDIANA

CITY           SKY/WX    TMP DP  RH WIND       PRES   REMARKS
GOSHEN         CLOUDY    30  23  75 SE3       30.34S
SOUTH BEND     CLOUDY    30  24  78 SE3       30.34F

$$

INZ006>009-017-018-025>027-160200-
NORTHEAST INDIANA

CITY           SKY/WX    TMP DP  RH WIND       PRES   REMARKS
ANGOLA *+      CLEAR     28  25  86 CALM      30.34S
FORT WAYNE     CLOUDY    29  24  82 E3        30.35S
KENDALLVILLE + PTCLDY    29  23  80 SE3       30.34S

$$

INZ028-029-035-036-043>045-051>053-160200-
WEST CENTRAL INDIANA

CITY           SKY/WX    TMP DP  RH WIND       PRES   REMARKS
CRAWFORDSVL +  CLOUDY    32  32 100 E8        30.32S FOG     WCI  25
LAFAYETTE      CLOUDY    32  28  85 E7        30.33S WCI  26
TERRE HAUTE    CLOUDY    35  32  88 E6        30.32F FOG     WCI  30

$$

INZ030>032-037>040-046>048-054>057-064-065-160200-
CENTRAL INDIANA

CITY           SKY/WX    TMP DP  RH WIND       PRES   REMARKS
COLUMBUS       LGT RAIN  36  36 100 CALM      30.34S FOG
INDIANAPOLIS   CLOUDY    34  30  85 E7        30.32F FOG     WCI  28
-EAGLE CREEK   MIX PCPN  34  29  82 E5        30.32F WCI  30
KOKOMO +       CLOUDY    32  28  85 E7        30.33F WCI  26
MT COMFORT *+  CLOUDY    32  30  93 CALM      30.33F
SHELBYVILLE    CLOUDY    36  31  82 E7        30.33S

$$

INZ033-034-041-042-049-050-058-059-160200-
EAST CENTRAL INDIANA

CITY           SKY/WX    TMP DP  RH WIND       PRES   REMARKS
MUNCIE         CLOUDY    33  28  81 E6        30.34S WCI  28

$$

INZ060-061-067>069-081>083-085>088-160200-
SOUTHWEST INDIANA

CITY           SKY/WX    TMP DP  RH WIND       PRES   REMARKS
EVANSVILLE     CLOUDY    40  38  93 E5        30.32S
HUNTINGBURG *+ CLOUDY    39  38  96 E3        30.32S

$$

INZ062-063-066-070>080-084-089>092-160200-
SOUTH CENTRAL AND SOUTHEAST INDIANA

CITY           SKY/WX    TMP DP  RH WIND       PRES   REMARKS
BLOOMINGTON    LGT RAIN  36  33  89 E7        30.31F FOG
MADISON *+     CLOUDY    37  36  93 NE3       30.35R

$$




USA.gov is the U.S. government's official web portal to all federal, state and local government web resources and services.